| time (UTC) | temp F | wind direction | speed MPH | gust MPH | rain 1hr in | rain 24hr in | rain mn in | humidity % | barometer mb |
| 20260508002155 | 53 | 12 | 1.0 | 3.0 | 0.00 | 0.00 | 0.00 | 51 | 1011.3 |
| 20260508001650 | 53 | 6 | 3.0 | 5.0 | 0.00 | 0.00 | 0.00 | 51 | 1011.2 |
| 20260508001146 | 53 | 178 | 1.0 | 2.0 | 0.00 | 0.00 | 0.00 | 52 | 1011.2 |
| 20260508000641 | 53 | 356 | 2.0 | 5.0 | 0.00 | 0.00 | 0.00 | 50 | 1011.0 |
| 20260508000134 | 54 | 174 | 0.0 | 5.0 | 0.00 | 0.00 | 0.00 | 49 | 1010.8 |
| 20260507235630 | 54 | 15 | 3.0 | 7.0 | 0.00 | 0.00 | 0.00 | 49 | 1010.7 |
| 20260507235128 | 55 | 94 | 4.0 | 7.0 | 0.00 | 0.00 | 0.00 | 48 | 1010.7 |
| 20260507234624 | 55 | 187 | 2.0 | 17.0 | 0.00 | 0.00 | 0.00 | 47 | 1010.8 |
| 20260507234121 | 55 | 182 | 2.0 | 8.0 | 0.00 | 0.00 | 0.00 | 47 | 1010.5 |
| 20260507233618 | 56 | 357 | 3.0 | 5.0 | 0.00 | 0.00 | 0.00 | 45 | 1010.8 |
| 20260507233117 | 56 | 4 | 2.0 | 5.0 | 0.00 | 0.00 | 0.00 | 44 | 1010.5 |
| 20260507232613 | 56 | 97 | 0.0 | 11.0 | 0.00 | 0.00 | 0.00 | 46 | 1010.5 |
| 20260507232110 | 57 | 211 | 1.0 | 7.0 | 0.00 | 0.00 | 0.00 | 45 | 1010.4 |
| 20260507231606 | 57 | 5 | 3.0 | 7.0 | 0.00 | 0.00 | 0.00 | 43 | 1010.3 |
| 20260507231103 | 57 | 334 | 2.0 | 6.0 | 0.00 | 0.00 | 0.00 | 43 | 1010.4 |
| 20260507230600 | 57 | 5 | 5.0 | 10.0 | 0.00 | 0.00 | 0.00 | 42 | 1010.2 |
| 20260507230056 | 57 | 5 | 7.0 | 11.0 | 0.00 | 0.00 | 0.00 | 42 | 1010.1 |
| 20260507225551 | 56 | 22 | 3.0 | 7.0 | 0.00 | 0.00 | 0.00 | 45 | 1010.3 |
| 20260507225048 | 57 | 51 | 2.0 | 8.0 | 0.00 | 0.00 | 0.00 | 43 | 1010.3 |
| 20260507224544 | 56 | 7 | 3.0 | 10.0 | 0.00 | 0.00 | 0.00 | 42 | 1010.4 |
| 20260507224041 | 57 | 133 | 0.0 | 9.0 | 0.00 | 0.00 | 0.00 | 42 | 1010.1 |
| 20260507223537 | 59 | 9 | 5.0 | 6.0 | 0.00 | 0.00 | 0.00 | 41 | 1009.9 |
| 20260507223034 | 59 | 187 | 0.0 | 6.0 | 0.00 | 0.00 | 0.00 | 41 | 1010.1 |
| 20260507222531 | 59 | 32 | 3.0 | 7.0 | 0.00 | 0.00 | 0.00 | 40 | 1010.0 |
| 20260507222027 | 59 | 16 | 2.0 | 6.0 | 0.00 | 0.00 | 0.00 | 40 | 1009.9 |
| 20260507221524 | 61 | 336 | 1.0 | 6.0 | 0.00 | 0.00 | 0.00 | 40 | 1009.9 |
| 20260507221021 | 61 | 332 | 4.0 | 8.0 | 0.00 | 0.00 | 0.00 | 38 | 1009.6 |
| 20260507220518 | 61 | 317 | 4.0 | 10.0 | 0.00 | 0.00 | 0.00 | 39 | 1009.6 |
| 20260507220015 | 61 | 3 | 5.0 | 9.0 | 0.00 | 0.00 | 0.00 | 39 | 1009.5 |
| 20260507215511 | 62 | 348 | 3.0 | 8.0 | 0.00 | 0.00 | 0.00 | 38 | 1009.5 |
| 20260507215009 | 60 | 352 | 4.0 | 9.0 | 0.00 | 0.00 | 0.00 | 38 | 1009.6 |
| 20260507214506 | 61 | 147 | 2.0 | 9.0 | 0.00 | 0.00 | 0.00 | 39 | 1009.4 |
| 20260507214002 | 62 | 264 | 3.0 | 8.0 | 0.00 | 0.00 | 0.00 | 39 | 1009.4 |
| 20260507213459 | 59 | 351 | 4.0 | 8.0 | 0.00 | 0.00 | 0.00 | 41 | 1009.4 |
| 20260507212955 | 59 | 2 | 1.0 | 4.0 | 0.00 | 0.00 | 0.00 | 41 | 1009.1 |
| 20260507212451 | 62 | 159 | 3.0 | 4.0 | 0.00 | 0.00 | 0.00 | 38 | 1009.2 |
| 20260507211948 | 59 | 224 | 2.0 | 5.0 | 0.00 | 0.00 | 0.00 | 41 | 1009.4 |
| 20260507211445 | 60 | 61 | 2.0 | 10.0 | 0.00 | 0.00 | 0.00 | 40 | 1009.3 |
| 20260507210941 | 61 | 196 | 2.0 | 7.0 | 0.00 | 0.00 | 0.00 | 40 | 1009.1 |
| 20260507210438 | 62 | 183 | 2.0 | 7.0 | 0.00 | 0.00 | 0.00 | 38 | 1009.3 |
| 20260507205934 | 62 | 287 | 4.0 | 7.0 | 0.00 | 0.00 | 0.00 | 38 | 1009.2 |
| 20260507205432 | 62 | 8 | 5.0 | 11.0 | 0.00 | 0.00 | 0.00 | 38 | 1009.0 |
| 20260507204928 | 62 | 341 | 3.0 | 9.0 | 0.00 | 0.00 | 0.00 | 37 | 1009.0 |
| 20260507204419 | 59 | 154 | 2.0 | 9.0 | 0.00 | 0.00 | 0.00 | 41 | 1009.2 |
| 20260507203916 | 63 | 149 | 2.0 | 9.0 | 0.00 | 0.00 | 0.00 | 38 | 1009.1 |
| 20260507203409 | 59 | 152 | 0.0 | 9.0 | 0.00 | 0.00 | 0.00 | 41 | 1009.1 |
| 20260507202905 | 60 | 166 | 2.0 | 7.0 | 0.00 | 0.00 | 0.00 | 43 | 1009.1 |
| 20260507202401 | 61 | 356 | 3.0 | 7.0 | 0.00 | 0.00 | 0.00 | 38 | 1009.1 |
| 20260507201856 | 59 | 199 | 4.0 | 10.0 | 0.00 | 0.00 | 0.00 | 40 | 1009.2 |
| 20260507201352 | 63 | 214 | 2.0 | 7.0 | 0.00 | 0.00 | 0.00 | 35 | 1009.1 |
| 20260507200848 | 63 | 18 | 4.0 | 12.0 | 0.00 | 0.00 | 0.00 | 36 | 1009.3 |
| 20260507200344 | 62 | 6 | 2.0 | 8.0 | 0.00 | 0.00 | 0.00 | 38 | 1009.4 |
| 20260507195841 | 61 | 185 | 1.0 | 5.0 | 0.00 | 0.00 | 0.00 | 37 | 1009.4 |
| 20260507195339 | 62 | 35 | 2.0 | 5.0 | 0.00 | 0.00 | 0.00 | 40 | 1009.4 |
| 20260507194836 | 60 | 323 | 2.0 | 6.0 | 0.00 | 0.00 | 0.00 | 38 | 1009.6 |
| 20260507194332 | 61 | 1 | 4.0 | 7.0 | 0.00 | 0.00 | 0.00 | 39 | 1009.5 |
| 20260507193829 | 62 | 356 | 3.0 | 5.0 | 0.00 | 0.00 | 0.00 | 40 | 1009.5 |
| 20260507193326 | 63 | 0 | 0.0 | 10.0 | 0.00 | 0.00 | 0.00 | 36 | 1009.4 |
| 20260507192821 | 65 | 197 | 3.0 | 5.0 | 0.00 | 0.00 | 0.00 | 35 | 1009.7 |
| 20260507192319 | 63 | 216 | 4.0 | 11.0 | 0.00 | 0.00 | 0.00 | 37 | 1009.6 |
| 20260507191815 | 62 | 359 | 0.0 | 5.0 | 0.00 | 0.00 | 0.00 | 39 | 1009.6 |
| 20260507191311 | 63 | 162 | 2.0 | 6.0 | 0.00 | 0.00 | 0.00 | 40 | 1009.5 |
| 20260507190808 | 60 | 135 | 5.0 | 8.0 | 0.00 | 0.00 | 0.00 | 39 | 1009.6 |
| 20260507190307 | 60 | 354 | 8.0 | 9.0 | 0.00 | 0.00 | 0.00 | 38 | 1009.7 |
| 20260507185805 | 59 | 182 | 1.0 | 6.0 | 0.00 | 0.00 | 0.00 | 43 | 1009.6 |
| 20260507185305 | 59 | 266 | 2.0 | 8.0 | 0.00 | 0.00 | 0.00 | 41 | 1009.6 |
| 20260507184759 | 60 | 352 | 4.0 | 8.0 | 0.00 | 0.00 | 0.00 | 42 | 1009.6 |
| 20260507184257 | 60 | 14 | 3.0 | 6.0 | 0.00 | 0.00 | 0.00 | 43 | 1009.9 |
| 20260507183753 | 60 | 13 | 4.0 | 7.0 | 0.00 | 0.00 | 0.00 | 42 | 1010.1 |
| 20260507183250 | 59 | 229 | 1.0 | 4.0 | 0.00 | 0.00 | 0.00 | 44 | 1010.0 |
| 20260507182747 | 61 | 205 | 2.0 | 6.0 | 0.00 | 0.00 | 0.00 | 41 | 1009.9 |
| 20260507182242 | 59 | 342 | 1.0 | 5.0 | 0.00 | 0.00 | 0.00 | 43 | 1010.0 |
| 20260507181740 | 60 | 154 | 3.0 | 8.0 | 0.00 | 0.00 | 0.00 | 40 | 1010.0 |
| 20260507181236 | 62 | 265 | 0.0 | 4.0 | 0.00 | 0.00 | 0.00 | 44 | 1010.1 |
| 20260507180732 | 60 | 13 | 0.0 | 9.0 | 0.00 | 0.00 | 0.00 | 44 | 1010.1 |
| 20260507180230 | 58 | 1 | 2.0 | 7.0 | 0.00 | 0.00 | 0.00 | 45 | 1010.0 |
| 20260507175725 | 57 | 8 | 1.0 | 4.0 | 0.00 | 0.00 | 0.00 | 47 | 1010.2 |
| 20260507175223 | 59 | 351 | 2.0 | 4.0 | 0.00 | 0.00 | 0.00 | 46 | 1010.0 |
| 20260507174720 | 59 | 312 | 3.0 | 7.0 | 0.00 | 0.00 | 0.00 | 44 | 1010.2 |
| 20260507174217 | 60 | 351 | 3.0 | 4.0 | 0.00 | 0.00 | 0.00 | 46 | 1010.3 |
| 20260507173715 | 60 | 189 | 3.0 | 8.0 | 0.00 | 0.00 | 0.00 | 43 | 1010.3 |
| 20260507173211 | 60 | 198 | 3.0 | 10.0 | 0.00 | 0.00 | 0.00 | 47 | 1010.3 |
| 20260507172707 | 57 | 344 | 2.0 | 4.0 | 0.00 | 0.00 | 0.00 | 47 | 1010.6 |
| 20260507172159 | 57 | 184 | 1.0 | 6.0 | 0.00 | 0.00 | 0.00 | 47 | 1010.5 |
| 20260507171659 | 58 | 200 | 1.0 | 3.0 | 0.00 | 0.00 | 0.00 | 48 | 1010.4 |
| 20260507171156 | 57 | 346 | 4.0 | 7.0 | 0.00 | 0.00 | 0.00 | 46 | 1010.6 |
| 20260507170653 | 59 | 359 | 4.0 | 7.0 | 0.00 | 0.00 | 0.00 | 45 | 1010.5 |
| 20260507170151 | 59 | 239 | 2.0 | 10.0 | 0.00 | 0.00 | 0.00 | 44 | 1010.7 |
| 20260507165646 | 58 | 192 | 4.0 | 8.0 | 0.00 | 0.00 | 0.00 | 46 | 1010.6 |
| 20260507165143 | 59 | 174 | 3.0 | 9.0 | 0.00 | 0.00 | 0.00 | 46 | 1010.7 |
| 20260507164638 | 58 | 5 | 2.0 | 5.0 | 0.00 | 0.00 | 0.00 | 50 | 1010.7 |
| 20260507164135 | 58 | 288 | 3.0 | 9.0 | 0.00 | 0.00 | 0.00 | 47 | 1010.9 |
| 20260507163627 | 58 | 138 | 2.0 | 4.0 | 0.00 | 0.00 | 0.00 | 49 | 1010.8 |
| 20260507163125 | 57 | 154 | 1.0 | 9.0 | 0.00 | 0.00 | 0.00 | 49 | 1010.8 |
| 20260507162620 | 56 | 136 | 3.0 | 6.0 | 0.00 | 0.00 | 0.00 | 52 | 1011.0 |
| 20260507162117 | 57 | 356 | 3.0 | 6.0 | 0.00 | 0.00 | 0.00 | 50 | 1010.9 |
| 20260507161613 | 57 | 69 | 2.0 | 6.0 | 0.00 | 0.00 | 0.00 | 52 | 1010.8 |
| 20260507161110 | 55 | 262 | 0.0 | 5.0 | 0.00 | 0.00 | 0.00 | 55 | 1010.9 |
| 20260507160607 | 56 | 340 | 0.0 | 4.0 | 0.00 | 0.00 | 0.00 | 53 | 1011.2 |
| 20260507155558 | 55 | 7 | 3.0 | 4.0 | 0.00 | 0.00 | 0.00 | 53 | 1011.1 |
| 20260507155055 | 55 | 275 | 0.0 | 7.0 | 0.00 | 0.00 | 0.00 | 53 | 1011.1 |
| 20260507154552 | 55 | 343 | 4.0 | 7.0 | 0.00 | 0.00 | 0.00 | 52 | 1011.3 |
| 20260507154049 | 56 | 156 | 1.0 | 7.0 | 0.00 | 0.00 | 0.00 | 54 | 1011.2 |
| 20260507153546 | 56 | 5 | 3.0 | 6.0 | 0.00 | 0.00 | 0.00 | 49 | 1011.2 |
| 20260507153042 | 56 | 348 | 3.0 | 5.0 | 0.00 | 0.00 | 0.00 | 53 | 1011.1 |
| 20260507152538 | 57 | 332 | 2.0 | 6.0 | 0.00 | 0.00 | 0.00 | 53 | 1011.6 |
| 20260507152035 | 56 | 1 | 4.0 | 6.0 | 0.00 | 0.00 | 0.00 | 50 | 1011.5 |
| 20260507151531 | 55 | 162 | 1.0 | 6.0 | 0.00 | 0.00 | 0.00 | 56 | 1011.5 |
| 20260507151028 | 56 | 39 | 1.0 | 8.0 | 0.00 | 0.00 | 0.00 | 51 | 1011.5 |
| 20260507150525 | 55 | 4 | 3.0 | 5.0 | 0.00 | 0.00 | 0.00 | 54 | 1011.5 |
| 20260507150022 | 54 | 331 | 0.0 | 7.0 | 0.00 | 0.00 | 0.00 | 51 | 1011.5 |
| 20260507145516 | 56 | 42 | 1.0 | 7.0 | 0.00 | 0.00 | 0.00 | 52 | 1011.7 |
| 20260507145015 | 55 | 332 | 1.0 | 5.0 | 0.00 | 0.00 | 0.00 | 53 | 1011.8 |
| 20260507144511 | 55 | 142 | 0.0 | 5.0 | 0.00 | 0.00 | 0.00 | 55 | 1011.8 |
| 20260507144009 | 55 | 19 | 2.0 | 3.0 | 0.00 | 0.00 | 0.00 | 54 | 1011.6 |
| 20260507143506 | 55 | 146 | 1.0 | 4.0 | 0.00 | 0.00 | 0.00 | 56 | 1011.9 |
| 20260507143003 | 55 | 141 | 5.0 | 6.0 | 0.00 | 0.00 | 0.00 | 56 | 1011.8 |
| 20260507142458 | 54 | 128 | 1.0 | 5.0 | 0.00 | 0.00 | 0.00 | 57 | 1012.1 |
| 20260507141955 | 54 | 133 | 1.0 | 7.0 | 0.00 | 0.00 | 0.00 | 56 | 1012.1 |
| 20260507141451 | 53 | 186 | 4.0 | 11.0 | 0.00 | 0.00 | 0.00 | 60 | 1012.1 |
| 20260507140948 | 54 | 182 | 2.0 | 5.0 | 0.00 | 0.00 | 0.00 | 62 | 1012.3 |
| 20260507140445 | 54 | 141 | 2.0 | 2.0 | 0.00 | 0.00 | 0.00 | 66 | 1012.2 |
| 20260507135942 | 53 | 26 | 0.0 | 2.0 | 0.00 | 0.00 | 0.00 | 68 | 1012.3 |
| 20260507135439 | 52 | 355 | 2.0 | 5.0 | 0.00 | 0.00 | 0.00 | 66 | 1012.2 |
| 20260507134936 | 52 | 164 | 2.0 | 6.0 | 0.00 | 0.00 | 0.00 | 67 | 1012.5 |
| 20260507134433 | 52 | 13 | 2.0 | 4.0 | 0.00 | 0.00 | 0.00 | 70 | 1012.6 |
| 20260507133929 | 51 | 155 | 4.0 | 6.0 | 0.00 | 0.00 | 0.00 | 67 | 1012.6 |
| 20260507133424 | 51 | 179 | 2.0 | 4.0 | 0.00 | 0.00 | 0.00 | 70 | 1012.7 |
| 20260507132918 | 50 | 353 | 3.0 | 5.0 | 0.00 | 0.00 | 0.00 | 70 | 1012.4 |
| 20260507132413 | 50 | 160 | 2.0 | 7.0 | 0.00 | 0.00 | 0.00 | 69 | 1012.6 |
| 20260507131910 | 50 | 21 | 3.0 | 5.0 | 0.00 | 0.00 | 0.00 | 69 | 1012.6 |
| 20260507131407 | 50 | 200 | 0.0 | 5.0 | 0.00 | 0.00 | 0.00 | 71 | 1012.5 |
| 20260507130904 | 50 | 343 | 2.0 | 5.0 | 0.00 | 0.00 | 0.00 | 71 | 1012.6 |
| 20260507130401 | 49 | 46 | 0.0 | 3.0 | 0.00 | 0.00 | 0.00 | 74 | 1012.7 |
| 20260507125900 | 49 | 28 | 0.0 | 2.0 | 0.00 | 0.00 | 0.00 | 76 | 1012.7 |
| 20260507125357 | 48 | 122 | 0.0 | 6.0 | 0.00 | 0.00 | 0.00 | 77 | 1012.5 |
| 20260507124855 | 48 | 77 | 2.0 | 5.0 | 0.00 | 0.00 | 0.00 | 77 | 1012.6 |
| 20260507124350 | 47 | 160 | 1.0 | 5.0 | 0.00 | 0.00 | 0.00 | 77 | 1012.7 |
| 20260507123849 | 47 | 279 | 2.0 | 6.0 | 0.00 | 0.00 | 0.00 | 78 | 1012.6 |
| 20260507123346 | 47 | 189 | 2.0 | 4.0 | 0.00 | 0.00 | 0.00 | 80 | 1012.7 |
| 20260507122842 | 46 | 146 | 1.0 | 6.0 | 0.00 | 0.00 | 0.00 | 80 | 1012.5 |
| 20260507122337 | 46 | 137 | 1.0 | 3.0 | 0.00 | 0.00 | 0.00 | 82 | 1012.6 |
| 20260507121834 | 46 | 150 | 0.0 | 2.0 | 0.00 | 0.00 | 0.00 | 85 | 1012.6 |
| 20260507121330 | 45 | 223 | 2.0 | 2.0 | 0.00 | 0.00 | 0.00 | 87 | 1012.7 |
| 20260507120827 | 44 | 182 | 2.0 | 4.0 | 0.00 | 0.00 | 0.00 | 91 | 1012.5 |
| 20260507120323 | 44 | 89 | 0.0 | 2.0 | 0.00 | 0.00 | 0.00 | 93 | 1012.5 |
| 20260507115819 | 44 | 72 | 0.0 | 2.0 | 0.00 | 0.00 | 0.00 | 94 | 1012.6 |
| 20260507115315 | 43 | 104 | 0.0 | 2.0 | 0.00 | 0.00 | 0.00 | 95 | 1012.6 |
| 20260507114811 | 42 | 169 | 0.0 | 1.0 | 0.00 | 0.00 | 0.00 | 96 | 1012.8 |
| 20260507114308 | 41 | 66 | 0.0 | 1.0 | 0.00 | 0.00 | 0.00 | 96 | 1012.7 |
| 20260507113806 | 40 | 89 | 0.0 | 1.0 | 0.00 | 0.00 | 0.00 | 96 | 1012.7 |
| 20260507113302 | 40 | 24 | 0.0 | 2.0 | 0.00 | 0.00 | 0.00 | 96 | 1012.7 |
| 20260507112800 | 39 | 89 | 0.0 | 2.0 | 0.00 | 0.00 | 0.00 | 96 | 1012.7 |
| 20260507112257 | 39 | 60 | 0.0 | 1.0 | 0.00 | 0.00 | 0.00 | 96 | 1012.6 |
| 20260507111755 | 38 | 44 | 0.0 | 2.0 | 0.00 | 0.00 | 0.00 | 96 | 1012.4 |
| 20260507111250 | 38 | 60 | 0.0 | 2.0 | 0.00 | 0.00 | 0.00 | 96 | 1012.5 |
| 20260507110746 | 37 | 32 | 0.0 | 2.0 | 0.00 | 0.00 | 0.00 | 96 | 1012.3 |
| 20260507110238 | 37 | 113 | 0.0 | 1.0 | 0.00 | 0.00 | 0.00 | 95 | 1012.4 |
| 20260507105735 | 36 | 127 | 0.0 | 2.0 | 0.00 | 0.00 | 0.00 | 95 | 1012.3 |
| 20260507105231 | 36 | 32 | 0.0 | 2.0 | 0.00 | 0.00 | 0.00 | 95 | 1012.3 |
| 20260507104728 | 36 | 58 | 0.0 | 2.0 | 0.00 | 0.00 | 0.00 | 95 | 1012.3 |
| 20260507104225 | 37 | 11 | 0.0 | 2.0 | 0.00 | 0.00 | 0.00 | 94 | 1012.2 |
| 20260507103721 | 36 | 132 | 0.0 | 2.0 | 0.00 | 0.00 | 0.00 | 95 | 1012.2 |
| 20260507103217 | 36 | 102 | 0.0 | 2.0 | 0.00 | 0.00 | 0.00 | 95 | 1012.0 |
| 20260507102713 | 36 | 89 | 0.0 | 1.0 | 0.00 | 0.00 | 0.00 | 94 | 1012.0 |
| 20260507102204 | 36 | 113 | 0.0 | 2.0 | 0.00 | 0.00 | 0.00 | 94 | 1012.1 |
| 20260507101700 | 37 | 74 | 1.0 | 2.0 | 0.00 | 0.00 | 0.00 | 94 | 1012.1 |
| 20260507101156 | 37 | 156 | 0.0 | 2.0 | 0.00 | 0.00 | 0.00 | 95 | 1011.9 |
| 20260507100653 | 37 | 135 | 0.0 | 2.0 | 0.00 | 0.00 | 0.00 | 94 | 1012.3 |
| 20260507100152 | 36 | 111 | 0.0 | 2.0 | 0.00 | 0.00 | 0.00 | 95 | 1012.0 |
| 20260507095649 | 36 | 58 | 0.0 | 3.0 | 0.00 | 0.00 | 0.00 | 95 | 1012.1 |
| 20260507095146 | 37 | 120 | 0.0 | 2.0 | 0.00 | 0.00 | 0.00 | 95 | 1012.1 |
| 20260507094642 | 37 | 75 | 1.0 | 2.0 | 0.00 | 0.00 | 0.00 | 95 | 1012.1 |
| 20260507094139 | 37 | 156 | 0.0 | 2.0 | 0.00 | 0.00 | 0.00 | 94 | 1012.0 |
| 20260507093636 | 37 | 110 | 0.0 | 2.0 | 0.00 | 0.00 | 0.00 | 95 | 1012.0 |
| 20260507093135 | 37 | 70 | 0.0 | 1.0 | 0.00 | 0.00 | 0.00 | 95 | 1011.8 |
| 20260507092631 | 37 | 12 | 0.0 | 2.0 | 0.00 | 0.00 | 0.00 | 95 | 1012.1 |
| 20260507092128 | 37 | 32 | 0.0 | 2.0 | 0.00 | 0.00 | 0.00 | 95 | 1012.1 |
| 20260507091624 | 37 | 126 | 1.0 | 2.0 | 0.00 | 0.00 | 0.00 | 95 | 1012.3 |
| 20260507091120 | 37 | 113 | 0.0 | 2.0 | 0.00 | 0.00 | 0.00 | 95 | 1012.2 |
| 20260507090616 | 38 | 89 | 0.0 | 2.0 | 0.00 | 0.00 | 0.00 | 95 | 1012.1 |
| 20260507090114 | 38 | 71 | 0.0 | 1.0 | 0.00 | 0.00 | 0.00 | 95 | 1012.2 |
| 20260507085610 | 38 | 98 | 0.0 | 2.0 | 0.00 | 0.00 | 0.00 | 95 | 1012.4 |
| 20260507085107 | 37 | 164 | 0.0 | 2.0 | 0.00 | 0.00 | 0.00 | 95 | 1012.1 |
| 20260507084604 | 37 | 141 | 0.0 | 2.0 | 0.00 | 0.00 | 0.00 | 95 | 1012.0 |
| 20260507084101 | 37 | 133 | 0.0 | 2.0 | 0.00 | 0.00 | 0.00 | 95 | 1012.2 |
| 20260507083557 | 37 | 113 | 0.0 | 2.0 | 0.00 | 0.00 | 0.00 | 95 | 1012.1 |
| 20260507083054 | 38 | 33 | 1.0 | 2.0 | 0.00 | 0.00 | 0.00 | 94 | 1012.4 |
| 20260507082550 | 38 | 11 | 0.0 | 2.0 | 0.00 | 0.00 | 0.00 | 94 | 1012.1 |
| 20260507082047 | 38 | 113 | 0.0 | 2.0 | 0.00 | 0.00 | 0.00 | 94 | 1012.3 |
| 20260507081543 | 38 | 135 | 0.0 | 1.0 | 0.00 | 0.00 | 0.00 | 94 | 1012.1 |
| 20260507081040 | 38 | 89 | 0.0 | 1.0 | 0.00 | 0.00 | 0.00 | 94 | 1012.1 |
| 20260507080536 | 38 | 15 | 0.0 | 2.0 | 0.00 | 0.00 | 0.00 | 94 | 1012.3 |
| 20260507080032 | 38 | 113 | 1.0 | 1.0 | 0.00 | 0.00 | 0.00 | 94 | 1012.3 |
| 20260507075527 | 38 | 49 | 0.0 | 2.0 | 0.00 | 0.00 | 0.00 | 94 | 1012.2 |
| 20260507075024 | 39 | 42 | 0.0 | 2.0 | 0.00 | 0.00 | 0.00 | 94 | 1012.4 |
| 20260507074521 | 39 | 43 | 0.0 | 2.0 | 0.00 | 0.00 | 0.00 | 93 | 1012.3 |
| 20260507074020 | 40 | 15 | 1.0 | 2.0 | 0.00 | 0.00 | 0.00 | 93 | 1012.4 |
| 20260507073515 | 39 | 97 | 0.0 | 1.0 | 0.00 | 0.00 | 0.00 | 93 | 1012.2 |
| 20260507073012 | 39 | 168 | 0.0 | 1.0 | 0.00 | 0.00 | 0.00 | 93 | 1012.2 |
| 20260507072510 | 39 | 116 | 0.0 | 2.0 | 0.00 | 0.00 | 0.00 | 93 | 1012.3 |
| 20260507072007 | 39 | 66 | 0.0 | 1.0 | 0.00 | 0.00 | 0.00 | 93 | 1012.3 |
| 20260507071504 | 39 | 53 | 0.0 | 2.0 | 0.00 | 0.00 | 0.00 | 92 | 1012.3 |
| 20260507071001 | 40 | 55 | 0.0 | 1.0 | 0.00 | 0.00 | 0.00 | 92 | 1012.5 |
| 20260507070458 | 41 | 55 | 0.0 | 2.0 | 0.00 | 0.00 | 0.00 | 91 | 1012.4 |
| 20260507065954 | 41 | 89 | 0.0 | 1.0 | 0.00 | 0.00 | 0.00 | 91 | 1012.5 |
| 20260507065451 | 41 | 113 | 0.0 | 1.0 | 0.00 | 0.00 | 0.00 | 92 | 1012.4 |
| 20260507064948 | 41 | 38 | 0.0 | 0.0 | 0.00 | 0.00 | 0.00 | 92 | 1012.5 |
| 20260507064447 | 41 | 110 | 0.0 | 1.0 | 0.00 | 0.00 | 0.00 | 92 | 1012.4 |
| 20260507063944 | 40 | 6 | 0.0 | 0.0 | 0.00 | 0.00 | 0.00 | 92 | 1012.4 |
| 20260507063441 | 40 | 46 | 1.0 | 2.0 | 0.00 | 0.00 | 0.00 | 92 | 1012.4 |
| 20260507062938 | 41 | 66 | 0.0 | 1.0 | 0.00 | 0.00 | 0.00 | 92 | 1012.3 |
| 20260507062435 | 41 | 40 | 1.0 | 2.0 | 0.00 | 0.00 | 0.00 | 91 | 1012.3 |
| 20260507061932 | 41 | 41 | 0.0 | 2.0 | 0.00 | 0.00 | 0.00 | 91 | 1012.3 |
| 20260507061430 | 42 | 50 | 1.0 | 2.0 | 0.00 | 0.00 | 0.00 | 90 | 1012.4 |
| 20260507060929 | 42 | 25 | 0.0 | 2.0 | 0.00 | 0.00 | 0.00 | 90 | 1012.6 |
| 20260507060425 | 42 | 9 | 1.0 | 2.0 | 0.00 | 0.00 | 0.00 | 89 | 1012.5 |
| 20260507055921 | 43 | 32 | 1.0 | 2.0 | 0.00 | 0.00 | 0.00 | 87 | 1012.6 |
| 20260507055416 | 43 | 77 | 0.0 | 2.0 | 0.00 | 0.00 | 0.00 | 84 | 1012.6 |
| 20260507054909 | 44 | 180 | 0.0 | 2.0 | 0.00 | 0.00 | 0.00 | 84 | 1012.7 |
| 20260507054404 | 44 | 145 | 0.0 | 1.0 | 0.00 | 0.00 | 0.00 | 83 | 1012.6 |
| 20260507053902 | 44 | 44 | 0.0 | 0.0 | 0.00 | 0.00 | 0.00 | 82 | 1012.8 |
| 20260507053359 | 45 | 37 | 0.0 | 1.0 | 0.00 | 0.00 | 0.00 | 81 | 1012.7 |
| 20260507052858 | 45 | 89 | 0.0 | 1.0 | 0.00 | 0.00 | 0.00 | 81 | 1012.7 |
| 20260507052354 | 45 | 55 | 0.0 | 1.0 | 0.00 | 0.00 | 0.00 | 80 | 1013.1 |
| 20260507051852 | 45 | 25 | 0.0 | 1.0 | 0.00 | 0.00 | 0.00 | 81 | 1013.3 |
| 20260507051349 | 46 | 31 | 0.0 | 2.0 | 0.00 | 0.00 | 0.00 | 80 | 1013.5 |
| 20260507050846 | 46 | 11 | 0.0 | 2.0 | 0.00 | 0.00 | 0.00 | 80 | 1013.3 |
| 20260507050343 | 46 | 35 | 1.0 | 2.0 | 0.00 | 0.00 | 0.00 | 80 | 1013.3 |
| 20260507045839 | 46 | 35 | 0.0 | 2.0 | 0.00 | 0.00 | 0.00 | 79 | 1013.4 |
| 20260507045336 | 46 | 23 | 2.0 | 2.0 | 0.00 | 0.00 | 0.00 | 81 | 1013.3 |
| 20260507044833 | 46 | 141 | 0.0 | 2.0 | 0.00 | 0.00 | 0.00 | 80 | 1013.4 |
| 20260507044330 | 46 | 0 | 0.0 | 2.0 | 0.00 | 0.00 | 0.00 | 80 | 1013.2 |
| 20260507043825 | 46 | 81 | 0.0 | 2.0 | 0.00 | 0.00 | 0.00 | 79 | 1013.3 |
| 20260507043322 | 46 | 116 | 0.0 | 2.0 | 0.00 | 0.00 | 0.00 | 79 | 1013.4 |
| 20260507042819 | 46 | 113 | 1.0 | 2.0 | 0.00 | 0.00 | 0.00 | 80 | 1013.2 |
| 20260507042314 | 46 | 158 | 1.0 | 2.0 | 0.00 | 0.00 | 0.00 | 81 | 1013.4 |
| 20260507041812 | 46 | 180 | 0.0 | 1.0 | 0.00 | 0.00 | 0.00 | 81 | 1013.3 |
| 20260507041308 | 46 | 12 | 1.0 | 2.0 | 0.00 | 0.00 | 0.00 | 82 | 1013.2 |
| 20260507040805 | 46 | 25 | 0.0 | 2.0 | 0.00 | 0.00 | 0.00 | 81 | 1013.3 |
| 20260507040301 | 46 | 81 | 0.0 | 3.0 | 0.00 | 0.00 | 0.00 | 83 | 1013.1 |
| 20260507035757 | 46 | 89 | 0.0 | 3.0 | 0.00 | 0.51 | 0.51 | 83 | 1013.2 |
| 20260507035252 | 46 | 157 | 0.0 | 2.0 | 0.00 | 0.51 | 0.51 | 84 | 1013.1 |
| 20260507034750 | 46 | 195 | 0.0 | 1.0 | 0.00 | 0.51 | 0.51 | 83 | 1013.1 |
| 20260507034247 | 46 | 104 | 0.0 | 1.0 | 0.00 | 0.51 | 0.51 | 83 | 1013.3 |
| 20260507033746 | 46 | 89 | 0.0 | 1.0 | 0.00 | 0.51 | 0.51 | 84 | 1013.2 |
| 20260507033243 | 46 | 106 | 0.0 | 2.0 | 0.00 | 0.51 | 0.51 | 84 | 1012.8 |
| 20260507032740 | 46 | 116 | 0.0 | 1.0 | 0.00 | 0.51 | 0.51 | 84 | 1012.8 |
| 20260507032236 | 46 | 113 | 0.0 | 1.0 | 0.00 | 0.51 | 0.51 | 84 | 1013.0 |
| 20260507031732 | 46 | 116 | 0.0 | 1.0 | 0.00 | 0.51 | 0.51 | 84 | 1012.8 |
| 20260507031230 | 47 | 103 | 0.0 | 2.0 | 0.00 | 0.51 | 0.51 | 84 | 1012.8 |
| 20260507030726 | 47 | 214 | 0.0 | 2.0 | 0.00 | 0.51 | 0.51 | 82 | 1012.7 |
| 20260507030224 | 47 | 135 | 0.0 | 2.0 | 0.00 | 0.51 | 0.51 | 81 | 1013.0 |
| 20260507025721 | 47 | 75 | 0.0 | 2.0 | 0.00 | 0.51 | 0.51 | 76 | 1013.0 |
| 20260507025218 | 47 | 66 | 0.0 | 1.0 | 0.00 | 0.51 | 0.51 | 77 | 1012.8 |
| 20260507024716 | 47 | 32 | 0.0 | 1.0 | 0.00 | 0.51 | 0.51 | 77 | 1012.6 |
| 20260507024213 | 47 | 107 | 1.0 | 2.0 | 0.00 | 0.51 | 0.51 | 78 | 1012.7 |
| 20260507023708 | 47 | 57 | 0.0 | 1.0 | 0.00 | 0.51 | 0.51 | 75 | 1012.5 |
| 20260507023206 | 48 | 50 | 0.0 | 0.0 | 0.00 | 0.51 | 0.51 | 74 | 1012.7 |
| 20260507022703 | 47 | 53 | 0.0 | 2.0 | 0.00 | 0.51 | 0.51 | 74 | 1012.5 |
| 20260507022158 | 48 | 22 | 0.0 | 2.0 | 0.00 | 0.51 | 0.51 | 77 | 1012.7 |
| 20260507021655 | 48 | 86 | 1.0 | 2.0 | 0.00 | 0.51 | 0.51 | 74 | 1012.5 |
| 20260507021150 | 48 | 50 | 0.0 | 2.0 | 0.00 | 0.51 | 0.51 | 73 | 1012.5 |
| 20260507020649 | 48 | 174 | 0.0 | 2.0 | 0.00 | 0.51 | 0.51 | 73 | 1012.5 |
| 20260507020144 | 48 | 18 | 1.0 | 2.0 | 0.00 | 0.51 | 0.51 | 74 | 1012.2 |
| 20260507015643 | 48 | 75 | 0.0 | 2.0 | 0.00 | 0.51 | 0.51 | 74 | 1012.2 |
| 20260507015140 | 48 | 13 | 1.0 | 2.0 | 0.00 | 0.51 | 0.51 | 74 | 1012.3 |
| 20260507014636 | 48 | 31 | 1.0 | 3.0 | 0.00 | 0.51 | 0.51 | 72 | 1012.3 |
| 20260507014132 | 48 | 8 | 0.0 | 2.0 | 0.00 | 0.51 | 0.51 | 72 | 1012.0 |
| 20260507013630 | 49 | 15 | 1.0 | 2.0 | 0.00 | 0.51 | 0.51 | 72 | 1011.9 |
| 20260507013127 | 49 | 131 | 1.0 | 2.0 | 0.00 | 0.51 | 0.51 | 70 | 1011.8 |
| 20260507012624 | 49 | 3 | 0.0 | 2.0 | 0.00 | 0.51 | 0.51 | 70 | 1011.7 |
| 20260507012119 | 49 | 126 | 0.0 | 2.0 | 0.00 | 0.51 | 0.51 | 71 | 1011.7 |
| 20260507011618 | 49 | 127 | 0.0 | 2.0 | 0.00 | 0.51 | 0.51 | 69 | 1011.9 |
| 20260507011114 | 49 | 136 | 1.0 | 3.0 | 0.00 | 0.51 | 0.51 | 68 | 1011.7 |
| 20260507010609 | 49 | 49 | 1.0 | 3.0 | 0.00 | 0.51 | 0.51 | 70 | 1012.1 |
| 20260507010104 | 50 | 172 | 2.0 | 3.0 | 0.00 | 0.51 | 0.51 | 67 | 1012.0 |
| 20260507005602 | 50 | 120 | 0.0 | 3.0 | 0.00 | 0.51 | 0.51 | 67 | 1011.9 |
| 20260507005058 | 50 | 128 | 0.0 | 2.0 | 0.00 | 0.51 | 0.51 | 68 | 1012.0 |
| 20260507004555 | 50 | 72 | 0.0 | 3.0 | 0.00 | 0.51 | 0.51 | 65 | 1012.1 |
| 20260507004053 | 50 | 218 | 0.0 | 2.0 | 0.00 | 0.51 | 0.51 | 68 | 1012.2 |
| 20260507003548 | 50 | 5 | 1.0 | 2.0 | 0.00 | 0.51 | 0.51 | 67 | 1012.1 |
| 20260507003044 | 51 | 41 | 0.0 | 3.0 | 0.00 | 0.51 | 0.51 | 67 | 1011.9 |
| 20260507002540 | 51 | 173 | 0.0 | 3.0 | 0.00 | 0.51 | 0.51 | 66 | 1012.0 |